Niederkassel-Weidenstrasse
Wetterdaten: aktuell Dienstag, 29.11.2022 21:35
Datum Zeit Temp. I. Temp. A. Feuchte I. Feuchte A. Luftdruck Regen Wind Richtung Richtung Sonnenschein ET UV Solar Taupunkt WinChill Windben
29.11.2022 21:35 19,5 C 6,9 C 64 % 95 % 1022,5 hPa 0,0 l/m 0,0 km/h (0 Bft) W-SW 256 0 min 0,000 mm 0,0 UV-I 0 W/m 6,2 C 6,9 C 0,0 km/h (0 Bft)
29.11.2022 20:35 19,7 C 6,9 C 64 % 95 % 1022,6 hPa 0,0 l/m 0,0 km/h (0 Bft) NO 46 0 min 0,000 mm 0,0 UV-I 0 W/m 6,2 C 6,9 C 0,0 km/h (0 Bft)
29.11.2022 19:35 19,5 C 7,3 C 61 % 96 % 1021,9 hPa 0,3 l/m 0,3 km/h (0 Bft) N-NO 31 0 min 0,000 mm 0,0 UV-I 0 W/m 6,7 C 7,3 C 3,5 km/h (1 Bft)
29.11.2022 18:37 19,4 C 7,3 C 62 % 96 % 1021,6 hPa 0,0 l/m 0,0 km/h (0 Bft) NO 36 0 min 0,000 mm 0,0 UV-I 0 W/m 6,7 C 7,3 C 0,0 km/h (0 Bft)
29.11.2022 17:37 19,0 C 8,2 C 61 % 94 % 1021,4 hPa 0,0 l/m 0,3 km/h (0 Bft) NO 47 0 min 0,000 mm 0,0 UV-I 0 W/m 7,3 C 8,2 C 3,5 km/h (1 Bft)
29.11.2022 16:37 19,1 C 8,4 C 61 % 93 % 1021,2 hPa 0,0 l/m 1,1 km/h (1 Bft) N-NO 32 0 min 0,000 mm 0,0 UV-I 1 W/m 7,3 C 8,4 C 3,5 km/h (1 Bft)
29.11.2022 15:39 19,1 C 8,6 C 61 % 92 % 1021,1 hPa 0,0 l/m 1,8 km/h (1 Bft) N-NO 31 0 min 0,000 mm 0,0 UV-I 5 W/m 7,4 C 8,6 C 3,5 km/h (1 Bft)
29.11.2022 14:39 19,1 C 9,0 C 61 % 90 % 1020,5 hPa 0,0 l/m 0,0 km/h (0 Bft) O-NO 59 0 min 0,000 mm 0,0 UV-I 6 W/m 7,4 C 9,0 C 1,8 km/h (1 Bft)
29.11.2022 13:40 19,1 C 9,1 C 61 % 88 % 1020,4 hPa 0,0 l/m 0,0 km/h (0 Bft) NO 47 0 min 0,000 mm 0,0 UV-I 22 W/m 7,2 C 9,1 C 0,0 km/h (0 Bft)
29.11.2022 12:41 19,2 C 8,7 C 61 % 90 % 1019,9 hPa 0,0 l/m 0,0 km/h (0 Bft) N-NO 25 0 min 0,000 mm 0,0 UV-I 44 W/m 7,2 C 8,7 C 0,0 km/h (0 Bft)
29.11.2022 11:41 19,2 C 8,6 C 61 % 93 % 1019,8 hPa 0,0 l/m 1,1 km/h (1 Bft) NO 35 0 min 0,000 mm 0,0 UV-I 46 W/m 7,5 C 8,6 C 5,5 km/h (1 Bft)
29.11.2022 10:40 19,2 C 8,3 C 61 % 95 % 1019,6 hPa 0,0 l/m 0,3 km/h (0 Bft) O-NO 57 0 min 0,000 mm 0,0 UV-I 30 W/m 7,5 C 8,3 C 5,5 km/h (1 Bft)
29.11.2022 09:40 19,2 C 8,1 C 61 % 97 % 1019,2 hPa 0,0 l/m 0,0 km/h (0 Bft) NO 52 0 min 0,000 mm 0,0 UV-I 15 W/m 7,7 C 8,1 C 3,5 km/h (1 Bft)
29.11.2022 08:40 19,2 C 8,1 C 61 % 97 % 1018,2 hPa 2,2 l/m 4,3 km/h (1 Bft) N 359 0 min 0,000 mm 0,0 UV-I 4 W/m 7,7 C 8,1 C 5,5 km/h (1 Bft)
29.11.2022 07:40 19,3 C 8,1 C 62 % 97 % 1018,0 hPa 2,6 l/m 0,0 km/h (0 Bft) O-NO 63 0 min 0,000 mm 0,0 UV-I 0 W/m 7,7 C 8,1 C 1,8 km/h (1 Bft)
29.11.2022 06:40 19,3 C 8,0 C 61 % 96 % 1017,3 hPa 0,0 l/m 1,8 km/h (1 Bft) W 267 0 min 0,000 mm 0,0 UV-I 0 W/m 7,4 C 8,0 C 5,5 km/h (1 Bft)
29.11.2022 05:40 19,3 C 8,1 C 61 % 96 % 1016,7 hPa 0,0 l/m 0,3 km/h (0 Bft) N-NO 19 0 min 0,000 mm 0,0 UV-I 0 W/m 7,5 C 8,1 C 1,8 km/h (1 Bft)
29.11.2022 04:40 19,2 C 7,5 C 62 % 95 % 1016,3 hPa 0,0 l/m 0,0 km/h (0 Bft) W-SW 253 0 min 0,000 mm 0,0 UV-I 0 W/m 6,8 C 7,5 C 0,0 km/h (0 Bft)
29.11.2022 03:40 19,3 C 7,3 C 62 % 95 % 1016,0 hPa 0,0 l/m 0,0 km/h (0 Bft) O-NO 73 0 min 0,000 mm 0,0 UV-I 0 W/m 6,6 C 7,3 C 0,0 km/h (0 Bft)
29.11.2022 02:41 19,4 C 7,0 C 63 % 98 % 1015,7 hPa 0,0 l/m 0,0 km/h (0 Bft) O-NO 74 0 min 0,000 mm 0,0 UV-I 0 W/m 6,7 C 7,0 C 0,0 km/h (0 Bft)
29.11.2022 01:42 19,5 C 6,8 C 63 % 98 % 1015,7 hPa 0,0 l/m 0,0 km/h (0 Bft) O-NO 74 0 min 0,000 mm 0,0 UV-I 0 W/m 6,5 C 6,8 C 0,0 km/h (0 Bft)
29.11.2022 00:36 19,6 C 6,8 C 63 % 98 % 1015,7 hPa 0,0 l/m 0,0 km/h (0 Bft) O-NO 74 0 min 0,000 mm 0,0 UV-I 0 W/m 6,5 C 6,8 C 0,0 km/h (0 Bft)
29.11.2022 00:01 19,7 C 6,9 C 63 % 98 % 1015,5 hPa 0,0 l/m 0,0 km/h (0 Bft) O-NO 74 0 min 0,000 mm 0,0 UV-I 0 W/m 6,6 C 6,9 C 0,0 km/h (0 Bft)
_ Min-Zeit 04:55 01:47 04:51 13:13 00:04 - 00:01 - - - - - - 20:51 01:47 00:01
Minimum _ 18,2 C 6,6 C 53 % 88 % 1015,3 hPa - 0,0 km/h (0 Bft) - - - - - - 6,0 C 6,6 C 0,0 km/h (0 Bft)
_ Max-Zeit 19:17 13:28 19:03 00:01 21:21 07:20 08:49 - - 00:01 00:01 00:01 12:55 11:52 13:28 09:57
Maximum _ 20,2 C 9,2 C 67 % 98 % 1022,8 hPa 0,3 l/m 5,5 km/h
NO (1 Bft)
- - 0 min 0,000 mm 0,0 UV-I 72 W/m 7,7 C 9,2 C 9,3 km/h
O-NO (2 Bft)
Durchschnitt _ 19,3 C 7,9 C 62 % 95 % 1019,1 hPa #5,1 l/m 0,5 km/h (0 Bft) NO - #0 min. #0,000 mm 0,0 UV-I 10 W/m 7,1 C 7,9 C 1,7 km/h (1 Bft)